Location: *
(34.6780°N, 135.8310°E)
Time: 23:33:01
(UTC+00:00)

Cosmos 1980 - Pass Details

Date: 18 October 2019
Orbit: 841 x 846 km, 71.0° (Epoch: 13 November)

Event Time Altitude Azimuth Distance (km) Brightness Sun altitude
Exits shadow 19:02:02 63° 210° (SSW) 931 3.7 -26.0°
Maximum altitude 19:02:59 85° 291° (WNW) 848 3.5 -25.8°
Drops below altitude 10° 19:08:38 10° 20° (NNE) 2,461 6.4 -24.6°
Sets 19:11:05 0° 21° (NNE) 3,399 7.2 -24.1°
